Regional Weather Roundup
Issued by NWS New Orleans/Baton Rouge, LA

Home | Current Version | Previous Version | Text Only | Print | Product List | Glossary On
Versions: 1 2 3 4 5 6 7 8 9 10 11 12 13 14 15 16 17 18 19 20 21 22 23 24 25 26 27 28 29 30 31 32 33 34 35 36 37 38 39 40 41 42 43 44 45 46 47 48 49 50
819
ASUS44 KLIX 060001
RWRLIX
NEW ORLEANS REGIONAL WEATHER ROUNDUP
NATIONAL WEATHER SERVICE NEW ORLEANS LA
600 PM CST THU MAR 05 2015

NOTE: "FAIR" INDICATES FEW OR NO CLOUDS BELOW 12,000 FEET WITH NO
      SIGNIFICANT WEATHER AND/OR OBSTRUCTIONS TO VISIBILITY.
      SKY/WX - SKY CONDITION AND SIGNIFICANT WEATHER.
      TMP - AIR TEMPERATURE.     DP    - DEWPOINT TEMPERATURE.
      RH  - RELATIVE HUMIDITY.   PRES  - PRESSURE.
      HI  - HEAT INDEX.          WCI   - WIND CHILL INDEX.

*  THESE STATIONS ARE NOT NWS OR FAA STATIONS AND ARE NOT UNDER
   NWS QUALITY CONTROL.

LAZ038-040-048-061>063-065>067-069-060100-
SOUTHEAST LOUISIANA

CITY           SKY/WX    TMP DP  RH WIND       PRES   REMARKS
N.O. AUDUBON     N/A     38  33  81 MISG        N/A
6HR MIN TEMP:  38; 6HR MAX TEMP:  45;

N.O. INTL ARPT CLOUDY    38  30  73 N22G38    30.35R WCI  27
6HR MIN TEMP:  38; 6HR MAX TEMP:  44; 6HR PCP: TRACE;

N.O. LAKEFRONT CLOUDY    41  32  70 N28G38    30.35R
6HR MIN TEMP:  40; 6HR MAX TEMP:  46;

SLIDELL        CLOUDY    37  30  75 N18G28    30.34R WCI  27
6HR MIN TEMP:  36; 6HR MAX TEMP:  42; 6HR PCP: TRACE;

BATON ROUGE    MOCLDY    36  24  62 N10G24    30.42R WCI  28
6HR MIN TEMP:  33; 6HR MAX TEMP:  36; 6HR PCP:  0.02;

BOOTHVILLE     CLOUDY    44  38  79 N15G28    30.29R
6HR MIN TEMP:  44; 6HR MAX TEMP:  53;

BELLE CHASSE   CLOUDY    39  30  70 N13G31    30.31R WCI  31
6HR MIN TEMP:  39; 6HR MAX TEMP:  46;

BOGALUSA*        N/A     36  30  78 N13G22    30.40R WCI  28
6HR MIN TEMP:  35; 6HR MAX TEMP:  40;

GALLIANO*      CLOUDY    42  36  79 N18G29    30.31R
6HR MIN TEMP:  42; 6HR MAX TEMP:  51;

NEW ROADS*     NOT AVBL
GONZALES*      NOT AVBL
HAMMOND*       NOT AVBL
HOUMA*         CLOUDY    37  30  75 N20G28    30.34R WCI  27
PORT FOURCHON* CLOUDY    43  37  81 N28G35    30.33R

$$

MSZ070-080>082-060100-
SOUTHERN MISSISSIPPI

CITY           SKY/WX    TMP DP  RH WIND       PRES   REMARKS
MCCOMB         PTCLDY    32  23  69 N15G22    30.41R WCI  22
6HR MIN TEMP:  30; 6HR MAX TEMP:  34; 6HR PCP:  0.02;

GULFPORT       CLOUDY    37  30  75 N17G31    30.31R WCI  27
6HR MIN TEMP:  37; 6HR MAX TEMP:  45;

BILOXI         NOT AVBL
PASCAGOULA     CLOUDY    38  31  76 N20G28    30.29R WCI  28
6HR MIN TEMP:  38; 6HR MAX TEMP:  49;

STENNIS ARPT*  CLOUDY    37  28  70 N16G25    30.34R WCI  28

$$

COASTAL OBSERVATIONS
LAKE AND NEARSHORE STATIONS

STATION/POSITION TIME  TEMP    WIND        PRES    WAVE
                       AIR SEA DIR/SP/G            HT/PER
                 (UTC) (F)     (DEG/KT/KT) (MB)    (FT/S)
PASCAGOULA       2318   40      10/ 22/ 29 1024.2
WAVELAND YACHT   2318   38 54  360/ 24/ 29 1026.0
GRAND ISLE       2318   44 64  360/ 25/ 34 1025.2
SOUTHWEST PASS   2318   47 45   10/ 25/ 29 1024.2
NEW CANAL        2318   40      10/ 22/ 28 1027.3
SHELL BEACH      2318   40 60  360/ 28/ 30 1025.7

OFFSHORE STATIONS

STATION/POSITION TIME  TEMP    WIND        PRES    WAVE
                       AIR SEA DIR/SP/G            HT/PER
                 (UTC) (F)     (DEG/KT/KT) (MB)    (FT/S)

$$




USA.gov is the U.S. government's official web portal to all federal, state and local government web resources and services.